SCP
0 0 0 0 0 -0 -0 0 0 0 0 0 0 0 0 0 0 0 0 0 0 0 0 0 0 0 0 0 0 0 0 0 0 0 0 0 0 0 0 0 0 0 0 0 -0
0 0 0 0 0 0 -0 0 0 0 0 0 0 0 0 0 0 0 0 0 0 0 0 0 0 0 0 0 0 0 0 0 0 0 0 0 0 0 0 0 0 0 0 0 0
0 0 0 0 0 0 0 0 0 0 0 0 0 0 0 0 0 0 0 0 0 0 0 0 0 0 0 0 0 0 0 0 0 0 0 0 0 0 0 0 0 -0 0 0 0
0 0 0 0 0 0 0 0 0 0 0 0 0 0 0 0 0 0 0 0 0 0 0 0 0 0 0 0 0 0 0 0 0 0 0 0 0 0 0 0 0 0 0 0 0
0 0 0 0 0 0 0 0 0 0 0 0 0 0 0 0 0 0 0 0 0 0 0 0 0 0 0 0 0 0 0 0 0 0 0 0 0 0 0 0 0 0 0 0 0
0 0 0 0 0 0 0 0 0 0 0 0 0 0 0 0 0 0 0 0 0 0 0 0 0 0 0 0 0 0 0 0 0 0 0 0 0 0 0 0 0 0 0 0 0
0 0 0 0 0 0 0 0 0 0 0 0 0 0 0 0 0 0 0 0 0 0 0 0 0 0 0 0 0 0 0 0 0 0 0 0 0 0 0 0 0 0 0 0 0
0 0 0 0 0 0 0 0 0 0 0 0 0 0 0 0 0 0 0 0 0 0 0 0 0 0 0 0 0 0 0 0 0 0 0 0 0 0 0 0 0 0 0 0 -0
0 0 0 0 0 0 0 0 0 0 0 0 0 0 0 0 0 0 0 0 0 0 0 0 0 0 0 0 0 0 0 0 0 0 0 0 0 0 0 0 0 0 0 0 -0
0 0 0 0 0 0 0 0 0 0 0 0 0 0 0 0 0 0 0 0 0 0 0 0 0 0 0 0 0 0 0 0 0 0 0 0 0 0 0 0 0 0 0 0 0
0 0 0 0 0 0 0 0 0 0 0 0 0 0 0 0 0 0 0 0 0 0 0 0 0 0 0 0 0 0 0 0 0 0 0 0 0 -0 -0 0 0 0 0 0 0
0 0 0 0 0 0 0 0 0 0 0 0 0 0 0 0 0 0 0 0 0 0 0 0 0 0 0 0 0 0 0 0 0 0 0 0 0 0 -0 0 0 0 0 0 0
0 0 0 0 0 0 0 0 0 0 0 0 0 0 0 0 0 0 0 0 0 0 0 0 0 0 0 0 0 0 0 0 0 0 0 0 -0 -0 0 -0 0 0 0 0 0
0 0 0 0 0 0 0 0 0 0 0 0 0 0 0 0 0 0 0 0 0 0 0 0 0 0 0 0 0 0 0 0 0 0 0 0 -0 0 -0 -0 0 0 0 0 0
0 0 0 0 0 0 0 0 0 0 0 0 0 0 0 0 0 0 0 0 0 0 0 0 0 0 0 0 0 0 0 0 0 0 0 0 0 -0 0 0 -0 0 0 0 0
0 0 0 0 0 0 0 0 0 0 0 0 0 0 0 0 0 0 0 0 0 0 0 0 0 0 0 0 0 0 0 0 0 0 0 0 0 -0 0 0 0 0 0 0 0
0 0 0 0 0 0 0 0 0 0 0 0 0 0 0 0 0 0 0 0 0 0 0 0 0 0 0 0 0 0 0 0 0 0 0 0 0 0 0 0 0 0 -0 0 0
0 0 0 0 0 0 0 0 0 0 0 0 0 0 0 0 0 0 0 0 0 0 0 0 0 0 0 0 0 0 0 0 0 0 0 0 0 0 0 0 -0 -0 0 0 0
0 0 0 0 0 0 0 0 0 0 0 0 0 0 0 0 0 0 0 0 0 0 0 0 0 0 0 0 0 0 0 0 0 0 0 0 0 0 -0 -0 0 0 0 0 0
0 0 0 0 0 0 0 0 0 0 0 0 0 0 0 0 0 0 0 0 0 0 0 0 0 0 0 0 0 0 0 0 0 0 0 0 0 0 0 0 0 0 0 0 0
0 0 0 0 0 0 0 0 0 0 0 0 0 0 0 0 0 0 0 0 0 0 0 0 0 0 0 0 0 0 0 0 0 0 0 0 0 0 0 0 0 0 0 0 0
0 0 0 0 0 0 0 0 0 0 0 0 0 0 0 0 0 0 0 0 0 0 0 0 0 0 0 0 0 0 0 0 0 0 0 0 0 0 0 0 0 0 0 0 0
0 0 0 0 0 0 0 0 0 0 0 0 0 0 0 0 0 0 0 0 0 0 0 0 0 0 0 0 0 0 0 0 0 0 0 0 0 0 -0 -0 -0 -0 0 0 0
0 0 0 0 0 0 0 0 0 0 0 0 0 0 0 0 0 0 0 0 0 0 0 0 0 0 0 0 0 0 0 0 0 0 0 0 0 0 0 0 0 0 0 0 0
0 0 0 0 0 0 0 0 0 0 0 0 0 0 0 0 0 0 0 0 0 0 0 0 0 0 0 0 0 0 0 0 0 0 0 0 0 0 0 0 0 -0 -0 0 0
0 0 0 0 0 0 0 0 0 0 0 0 0 0 0 0 0 0 0 0 0 0 0 0 0 0 0 0 0 0 0 0 0 0 0 0 0 0 0 0 0 0 0 0 0
-0 0 0 0 0 0 0 0 0 0 0 0 0 0 0 0 0 0 0 0 0 0 0 0 0 0 0 0 0 0 0 0 0 0 0 0 0 0 0 0 0 0 0 0 0
Wind_Speed_500mb
27 27 30 26 21 21 19 16 11 12 14 14 14 16 15 14 17 22 24 23 33 16 26 29 21 15 8 2 7 5 6 7 4 14 11 23 6 15 13 22 11 6 14 12 45
32 28 26 25 21 22 18 17 13 14 12 12 13 13 13 13 14 19 21 30 29 30 24 29 25 16 7 6 5 4 4 4 8 8 14 26 21 20 10 20 15 22 24 34 40
32 30 28 24 27 20 22 15 14 15 13 11 12 10 11 11 6 8 25 24 30 33 25 29 24 15 11 12 9 2 4 3 13 17 50 19 25 14 25 4 21 40 46 44 41
35 29 29 24 28 25 19 18 15 15 16 11 9 9 9 15 7 1 14 27 27 33 30 33 21 16 7 9 10 8 10 7 5 13 26 20 23 11 11 10 16 29 36 45 43
33 32 30 29 22 26 20 23 18 15 19 14 10 8 10 10 9 3 7 26 30 33 34 34 22 17 8 10 6 8 5 8 5 17 22 24 15 9 20 18 19 36 36 39 40
31 31 31 32 28 26 23 23 23 18 17 17 14 12 13 8 9 9 8 25 28 32 35 35 15 25 12 5 10 11 15 15 6 9 8 11 7 14 19 27 28 35 37 38 39
29 24 29 33 33 27 26 22 23 22 15 18 17 17 17 19 4 8 13 26 28 34 38 31 21 14 11 10 16 33 9 6 7 9 5 5 4 13 36 39 36 37 37 39 39
33 26 23 30 34 32 27 22 21 20 13 14 15 15 11 14 21 7 14 22 26 32 36 33 18 10 4 20 8 8 10 6 5 18 4 8 14 8 48 45 40 39 40 41 43
36 28 24 25 31 33 30 23 24 14 14 12 12 9 8 10 19 16 18 17 25 28 29 30 17 7 9 12 7 3 6 8 4 24 7 7 9 1 45 41 40 43 45 46 46
32 29 19 20 21 33 32 31 24 13 15 17 11 8 14 9 15 24 26 26 15 26 20 19 8 6 3 7 12 11 6 5 10 12 10 8 15 12 36 40 45 48 52 52 54
34 27 19 13 16 37 43 37 21 10 27 16 7 1 7 15 18 26 32 30 25 18 10 12 8 16 17 11 5 11 5 11 3 7 8 13 14 20 43 46 47 51 63 64 60
35 25 24 21 28 38 45 24 21 9 8 33 11 19 8 20 10 27 40 18 16 10 10 9 18 11 14 11 13 5 2 3 5 2 5 3 20 22 30 41 69 66 68 75 66
34 28 28 36 34 57 52 31 20 12 2 9 35 17 13 22 8 37 44 16 8 11 10 13 9 27 15 9 13 7 6 1 3 5 1 5 17 13 16 49 52 76 74 76 78
38 34 32 34 39 50 51 31 15 14 6 10 16 19 27 18 7 27 46 12 9 18 14 7 7 17 10 14 14 10 7 10 10 7 5 6 10 13 17 18 27 70 78 80 82
44 41 37 42 33 57 52 28 21 12 4 7 13 21 29 18 34 16 39 8 14 11 14 16 3 10 9 7 10 7 6 14 8 7 5 5 2 15 11 14 20 40 77 86 83
50 45 44 49 26 54 50 32 31 4 17 7 12 17 15 13 7 17 16 10 10 9 12 3 3 4 6 6 9 11 13 16 11 7 2 14 14 10 10 13 10 15 63 80 85
55 50 53 50 47 41 46 45 6 9 6 11 12 13 9 13 9 9 16 14 13 11 5 4 5 5 3 13 10 9 13 3 6 3 12 3 7 18 17 21 10 7 23 60 76
63 56 55 51 52 48 58 6 9 13 17 7 12 19 10 13 4 12 20 13 10 9 9 12 3 11 6 10 16 14 14 10 13 8 9 4 13 13 20 35 22 30 22 19 59
68 64 60 57 52 51 46 21 21 15 17 17 15 12 10 12 13 11 20 16 17 18 14 10 8 3 6 5 10 11 11 10 11 4 5 7 14 19 23 21 27 22 20 19 41
81 72 72 63 61 58 22 28 9 11 15 21 12 11 15 20 11 13 22 13 12 25 10 15 8 4 5 2 3 6 6 3 5 4 7 9 8 13 18 6 2 14 29 28 28
82 44 60 72 57 45 11 20 8 21 4 12 12 12 14 17 14 10 28 6 19 28 21 10 9 5 2 12 17 6 7 7 8 11 10 3 11 12 12 2 9 13 24 33 34
65 14 62 83 29 18 28 17 14 19 5 9 8 9 17 18 12 13 18 6 36 36 26 8 10 8 12 4 1 3 5 11 9 7 8 7 13 2 9 7 9 13 14 16 30
48 23 83 99 23 25 9 15 11 12 12 8 10 7 10 14 10 10 13 4 14 21 30 13 2 6 10 10 6 8 8 5 5 4 12 10 10 8 3 5 10 15 14 7 19
22 11 37 71 45 27 42 14 10 12 4 10 6 6 13 13 7 16 9 8 6 10 36 29 9 14 15 9 9 8 8 9 9 10 8 20 9 14 19 14 15 12 11 12 16
17 12 29 28 39 39 45 32 29 16 17 20 4 9 13 10 7 11 7 6 13 5 11 10 8 5 7 12 7 12 8 13 23 19 15 15 18 20 28 32 58 35 30 24 26
22 8 33 45 78 34 40 31 43 14 17 12 14 10 11 12 12 14 17 8 8 6 7 6 2 6 8 8 12 7 12 15 16 16 34 32 52 19 62 73 54 64 52 33 36
50 59 10 43 45 35 41 43 50 35 14 34 25 16 18 10 37 32 31 21 17 13 6 9 9 6 5 5 10 11 37 24 17 14 28 24 42 18 16 35 60 66 72 70 65
Wind_Direction_500mb
257 267 270 280 296 305 303 296 264 260 277 279 256 243 231 214 214 208 208 206 202 191 205 208 206 203 202 286 279 297 45 325 22 136 168 148 108 71 105 120 84 88 167 176 167
262 262 275 276 281 284 289 295 277 255 259 278 271 244 229 212 207 217 208 205 203 207 203 193 188 189 196 241 236 109 91 43 330 98 150 150 150 124 127 113 75 108 130 150 166
260 266 269 274 265 269 284 285 286 263 251 265 278 259 231 198 191 226 215 207 208 199 199 185 175 199 222 238 212 177 138 341 12 52 147 132 139 154 147 204 191 171 158 164 168
252 254 265 262 250 262 263 278 290 275 247 232 253 256 216 185 168 320 209 202 199 188 186 180 189 189 202 212 224 106 41 75 26 52 129 134 139 143 182 160 192 181 167 168 172
257 250 249 264 255 247 257 273 284 284 258 221 208 226 202 215 249 309 209 188 191 183 181 178 182 186 198 213 172 107 157 76 110 69 127 141 142 159 134 161 167 166 172 174 175
267 258 247 250 260 240 249 255 277 282 259 229 196 190 203 252 254 245 198 183 185 182 175 172 170 207 281 239 135 130 135 121 115 91 103 125 166 163 167 175 169 174 178 180 182
275 271 252 248 251 256 240 244 264 281 254 237 197 185 218 225 273 221 184 180 178 179 174 175 212 215 247 129 126 132 98 78 148 158 168 110 285 216 178 180 177 183 186 187 188
264 273 270 252 245 240 236 240 251 272 236 222 203 188 236 233 241 242 189 178 176 176 178 183 188 173 129 121 81 130 95 125 249 166 195 136 260 208 176 181 183 190 194 197 196
265 269 275 264 247 230 226 214 244 240 217 184 182 208 252 224 221 207 177 164 168 178 181 183 172 139 130 102 51 321 184 170 165 190 127 172 266 287 180 190 191 198 202 205 202
256 265 263 271 257 208 194 202 212 193 175 167 167 242 231 201 189 179 168 151 147 161 155 170 171 94 55 118 188 182 195 197 190 215 167 187 254 223 201 205 208 206 207 211 209
246 255 243 233 201 174 177 148 156 205 190 193 222 220 164 177 170 171 168 156 145 156 148 185 115 197 198 175 184 136 172 212 84 301 144 227 252 245 227 221 221 215 209 213 220
240 237 228 194 188 185 184 174 192 167 196 200 206 216 239 161 139 167 164 158 152 171 144 61 225 194 169 200 232 267 236 313 56 40 140 289 265 253 242 225 223 220 216 215 218
233 223 209 189 203 187 188 189 182 164 65 184 215 212 206 182 193 177 173 156 148 156 159 157 234 179 183 186 206 211 179 200 168 161 145 6 293 268 267 238 233 231 227 219 220
225 216 200 203 193 198 201 185 175 157 76 202 193 218 201 176 176 183 170 155 179 181 156 198 287 163 162 204 161 210 205 117 122 74 235 84 278 291 264 254 212 224 225 223 219
219 211 198 208 192 190 194 163 175 167 254 139 158 169 171 174 140 172 178 155 157 171 118 219 211 160 168 192 124 186 84 148 134 120 52 283 335 269 263 256 240 221 224 224 221
215 209 202 216 196 184 200 158 145 151 225 166 143 174 145 165 133 131 161 147 127 91 60 135 346 32 135 58 112 143 74 34 39 93 342 215 167 272 236 229 266 225 227 225 220
214 214 207 211 214 192 186 162 132 189 259 202 179 173 179 150 131 166 163 169 150 110 152 59 354 330 106 72 29 90 92 14 343 356 224 40 152 250 273 254 238 237 245 232 225
213 211 208 209 197 196 179 147 197 208 200 147 131 121 182 130 121 173 142 172 254 112 112 145 274 183 183 172 175 178 159 156 200 196 247 14 223 254 246 274 280 264 254 255 220
208 208 210 204 201 194 193 190 205 191 170 130 104 123 215 171 133 149 186 179 201 179 134 139 211 8 52 9 147 219 210 168 107 24 44 208 279 290 277 275 251 244 230 226 215
202 199 204 200 194 198 191 237 234 213 131 141 147 169 170 175 134 158 169 194 196 191 163 187 107 0 306 301 67 148 174 91 7 144 236 275 255 236 288 341 309 247 231 226 223
190 185 199 194 190 199 208 219 203 264 177 143 156 142 172 173 144 190 185 233 181 191 166 157 105 297 91 211 174 178 184 204 139 160 179 261 263 223 253 259 348 284 252 234 224
186 189 181 183 179 207 218 157 208 247 234 206 127 129 161 155 147 180 197 232 196 161 180 195 113 155 199 237 40 55 236 168 147 210 225 157 258 277 87 31 351 317 322 251 231
176 155 178 178 184 195 190 178 221 186 179 169 178 177 154 146 126 161 173 342 172 164 156 175 178 76 356 350 349 207 232 179 133 92 212 169 261 318 119 2 340 357 354 257 235
174 148 167 186 195 180 187 191 181 226 284 160 177 133 115 144 85 178 136 20 49 125 160 156 153 162 182 172 129 172 217 210 168 229 199 232 296 308 304 306 326 325 315 259 246
237 180 175 176 196 189 182 171 180 161 219 192 14 176 133 119 89 135 120 110 39 81 89 114 156 133 119 113 106 165 181 202 222 232 227 251 226 244 273 293 307 312 296 250 247
209 256 171 177 183 177 185 194 189 165 151 188 136 154 104 135 170 159 131 122 174 39 90 23 123 83 341 83 123 205 232 246 232 244 259 268 268 255 280 284 281 290 296 281 261
206 239 259 175 181 180 190 184 193 172 216 157 138 103 88 121 102 98 103 108 139 131 117 103 119 80 265 57 76 320 240 216 217 193 236 244 253 242 245 258 267 273 277 280 280
Wind_Speed_850mb
27 27 30 26 21 21 19 16 11 12 14 14 14 16 15 14 17 22 24 23 33 16 26 29 21 15 8 2 7 5 6 7 4 14 11 23 6 15 13 22 11 6 14 12 45
32 28 26 25 21 22 18 17 13 14 12 12 13 13 13 13 14 19 21 30 29 30 24 29 25 16 7 6 5 4 4 4 8 8 14 26 21 20 10 20 15 22 24 34 40
32 30 28 24 27 20 22 15 14 15 13 11 12 10 11 11 6 8 25 24 30 33 25 29 24 15 11 12 9 2 4 3 13 17 50 19 25 14 25 4 21 40 46 44 41
35 29 29 24 28 25 19 18 15 15 16 11 9 9 9 15 7 1 14 27 27 33 30 33 21 16 7 9 10 8 10 7 5 13 26 20 23 11 11 10 16 29 36 45 43
33 32 30 29 22 26 20 23 18 15 19 14 10 8 10 10 9 3 7 26 30 33 34 34 22 17 8 10 6 8 5 8 5 17 22 24 15 9 20 18 19 36 36 39 40
31 31 31 32 28 26 23 23 23 18 17 17 14 12 13 8 9 9 8 25 28 32 35 35 15 25 12 5 10 11 15 15 6 9 8 11 7 14 19 27 28 35 37 38 39
29 24 29 33 33 27 26 22 23 22 15 18 17 17 17 19 4 8 13 26 28 34 38 31 21 14 11 10 16 33 9 6 7 9 5 5 4 13 36 39 36 37 37 39 39
33 26 23 30 34 32 27 22 21 20 13 14 15 15 11 14 21 7 14 22 26 32 36 33 18 10 4 20 8 8 10 6 5 18 4 8 14 8 48 45 40 39 40 41 43
36 28 24 25 31 33 30 23 24 14 14 12 12 9 8 10 19 16 18 17 25 28 29 30 17 7 9 12 7 3 6 8 4 24 7 7 9 1 45 41 40 43 45 46 46
32 29 19 20 21 33 32 31 24 13 15 17 11 8 14 9 15 24 26 26 15 26 20 19 8 6 3 7 12 11 6 5 10 12 10 8 15 12 36 40 45 48 52 52 54
34 27 19 13 16 37 43 37 21 10 27 16 7 1 7 15 18 26 32 30 25 18 10 12 8 16 17 11 5 11 5 11 3 7 8 13 14 20 43 46 47 51 63 64 60
35 25 24 21 28 38 45 24 21 9 8 33 11 19 8 20 10 27 40 18 16 10 10 9 18 11 14 11 13 5 2 3 5 2 5 3 20 22 30 41 69 66 68 75 66
34 28 28 36 34 57 52 31 20 12 2 9 35 17 13 22 8 37 44 16 8 11 10 13 9 27 15 9 13 7 6 1 3 5 1 5 17 13 16 49 52 76 74 76 78
38 34 32 34 39 50 51 31 15 14 6 10 16 19 27 18 7 27 46 12 9 18 14 7 7 17 10 14 14 10 7 10 10 7 5 6 10 13 17 18 27 70 78 80 82
44 41 37 42 33 57 52 28 21 12 4 7 13 21 29 18 34 16 39 8 14 11 14 16 3 10 9 7 10 7 6 14 8 7 5 5 2 15 11 14 20 40 77 86 83
50 45 44 49 26 54 50 32 31 4 17 7 12 17 15 13 7 17 16 10 10 9 12 3 3 4 6 6 9 11 13 16 11 7 2 14 14 10 10 13 10 15 63 80 85
55 50 53 50 47 41 46 45 6 9 6 11 12 13 9 13 9 9 16 14 13 11 5 4 5 5 3 13 10 9 13 3 6 3 12 3 7 18 17 21 10 7 23 60 76
63 56 55 51 52 48 58 6 9 13 17 7 12 19 10 13 4 12 20 13 10 9 9 12 3 11 6 10 16 14 14 10 13 8 9 4 13 13 20 35 22 30 22 19 59
68 64 60 57 52 51 46 21 21 15 17 17 15 12 10 12 13 11 20 16 17 18 14 10 8 3 6 5 10 11 11 10 11 4 5 7 14 19 23 21 27 22 20 19 41
81 72 72 63 61 58 22 28 9 11 15 21 12 11 15 20 11 13 22 13 12 25 10 15 8 4 5 2 3 6 6 3 5 4 7 9 8 13 18 6 2 14 29 28 28
82 44 60 72 57 45 11 20 8 21 4 12 12 12 14 17 14 10 28 6 19 28 21 10 9 5 2 12 17 6 7 7 8 11 10 3 11 12 12 2 9 13 24 33 34
65 14 62 83 29 18 28 17 14 19 5 9 8 9 17 18 12 13 18 6 36 36 26 8 10 8 12 4 1 3 5 11 9 7 8 7 13 2 9 7 9 13 14 16 30
48 23 83 99 23 25 9 15 11 12 12 8 10 7 10 14 10 10 13 4 14 21 30 13 2 6 10 10 6 8 8 5 5 4 12 10 10 8 3 5 10 15 14 7 19
22 11 37 71 45 27 42 14 10 12 4 10 6 6 13 13 7 16 9 8 6 10 36 29 9 14 15 9 9 8 8 9 9 10 8 20 9 14 19 14 15 12 11 12 16
17 12 29 28 39 39 45 32 29 16 17 20 4 9 13 10 7 11 7 6 13 5 11 10 8 5 7 12 7 12 8 13 23 19 15 15 18 20 28 32 58 35 30 24 26
22 8 33 45 78 34 40 31 43 14 17 12 14 10 11 12 12 14 17 8 8 6 7 6 2 6 8 8 12 7 12 15 16 16 34 32 52 19 62 73 54 64 52 33 36
50 59 10 43 45 35 41 43 50 35 14 34 25 16 18 10 37 32 31 21 17 13 6 9 9 6 5 5 10 11 37 24 17 14 28 24 42 18 16 35 60 66 72 70 65
Wind_Direction_850mb
257 267 270 280 296 305 303 296 264 260 277 279 256 243 231 214 214 208 208 206 202 191 205 208 206 203 202 286 279 297 45 325 22 136 168 148 108 71 105 120 84 88 167 176 167
262 262 275 276 281 284 289 295 277 255 259 278 271 244 229 212 207 217 208 205 203 207 203 193 188 189 196 241 236 109 91 43 330 98 150 150 150 124 127 113 75 108 130 150 166
260 266 269 274 265 269 284 285 286 263 251 265 278 259 231 198 191 226 215 207 208 199 199 185 175 199 222 238 212 177 138 341 12 52 147 132 139 154 147 204 191 171 158 164 168
252 254 265 262 250 262 263 278 290 275 247 232 253 256 216 185 168 320 209 202 199 188 186 180 189 189 202 212 224 106 41 75 26 52 129 134 139 143 182 160 192 181 167 168 172
257 250 249 264 255 247 257 273 284 284 258 221 208 226 202 215 249 309 209 188 191 183 181 178 182 186 198 213 172 107 157 76 110 69 127 141 142 159 134 161 167 166 172 174 175
267 258 247 250 260 240 249 255 277 282 259 229 196 190 203 252 254 245 198 183 185 182 175 172 170 207 281 239 135 130 135 121 115 91 103 125 166 163 167 175 169 174 178 180 182
275 271 252 248 251 256 240 244 264 281 254 237 197 185 218 225 273 221 184 180 178 179 174 175 212 215 247 129 126 132 98 78 148 158 168 110 285 216 178 180 177 183 186 187 188
264 273 270 252 245 240 236 240 251 272 236 222 203 188 236 233 241 242 189 178 176 176 178 183 188 173 129 121 81 130 95 125 249 166 195 136 260 208 176 181 183 190 194 197 196
265 269 275 264 247 230 226 214 244 240 217 184 182 208 252 224 221 207 177 164 168 178 181 183 172 139 130 102 51 321 184 170 165 190 127 172 266 287 180 190 191 198 202 205 202
256 265 263 271 257 208 194 202 212 193 175 167 167 242 231 201 189 179 168 151 147 161 155 170 171 94 55 118 188 182 195 197 190 215 167 187 254 223 201 205 208 206 207 211 209
246 255 243 233 201 174 177 148 156 205 190 193 222 220 164 177 170 171 168 156 145 156 148 185 115 197 198 175 184 136 172 212 84 301 144 227 252 245 227 221 221 215 209 213 220
240 237 228 194 188 185 184 174 192 167 196 200 206 216 239 161 139 167 164 158 152 171 144 61 225 194 169 200 232 267 236 313 56 40 140 289 265 253 242 225 223 220 216 215 218
233 223 209 189 203 187 188 189 182 164 65 184 215 212 206 182 193 177 173 156 148 156 159 157 234 179 183 186 206 211 179 200 168 161 145 6 293 268 267 238 233 231 227 219 220
225 216 200 203 193 198 201 185 175 157 76 202 193 218 201 176 176 183 170 155 179 181 156 198 287 163 162 204 161 210 205 117 122 74 235 84 278 291 264 254 212 224 225 223 219
219 211 198 208 192 190 194 163 175 167 254 139 158 169 171 174 140 172 178 155 157 171 118 219 211 160 168 192 124 186 84 148 134 120 52 283 335 269 263 256 240 221 224 224 221
215 209 202 216 196 184 200 158 145 151 225 166 143 174 145 165 133 131 161 147 127 91 60 135 346 32 135 58 112 143 74 34 39 93 342 215 167 272 236 229 266 225 227 225 220
214 214 207 211 214 192 186 162 132 189 259 202 179 173 179 150 131 166 163 169 150 110 152 59 354 330 106 72 29 90 92 14 343 356 224 40 152 250 273 254 238 237 245 232 225
213 211 208 209 197 196 179 147 197 208 200 147 131 121 182 130 121 173 142 172 254 112 112 145 274 183 183 172 175 178 159 156 200 196 247 14 223 254 246 274 280 264 254 255 220
208 208 210 204 201 194 193 190 205 191 170 130 104 123 215 171 133 149 186 179 201 179 134 139 211 8 52 9 147 219 210 168 107 24 44 208 279 290 277 275 251 244 230 226 215
202 199 204 200 194 198 191 237 234 213 131 141 147 169 170 175 134 158 169 194 196 191 163 187 107 0 306 301 67 148 174 91 7 144 236 275 255 236 288 341 309 247 231 226 223
190 185 199 194 190 199 208 219 203 264 177 143 156 142 172 173 144 190 185 233 181 191 166 157 105 297 91 211 174 178 184 204 139 160 179 261 263 223 253 259 348 284 252 234 224
186 189 181 183 179 207 218 157 208 247 234 206 127 129 161 155 147 180 197 232 196 161 180 195 113 155 199 237 40 55 236 168 147 210 225 157 258 277 87 31 351 317 322 251 231
176 155 178 178 184 195 190 178 221 186 179 169 178 177 154 146 126 161 173 342 172 164 156 175 178 76 356 350 349 207 232 179 133 92 212 169 261 318 119 2 340 357 354 257 235
174 148 167 186 195 180 187 191 181 226 284 160 177 133 115 144 85 178 136 20 49 125 160 156 153 162 182 172 129 172 217 210 168 229 199 232 296 308 304 306 326 325 315 259 246
237 180 175 176 196 189 182 171 180 161 219 192 14 176 133 119 89 135 120 110 39 81 89 114 156 133 119 113 106 165 181 202 222 232 227 251 226 244 273 293 307 312 296 250 247
209 256 171 177 183 177 185 194 189 165 151 188 136 154 104 135 170 159 131 122 174 39 90 23 123 83 341 83 123 205 232 246 232 244 259 268 268 255 280 284 281 290 296 281 261
206 239 259 175 181 180 190 184 193 172 216 157 138 103 88 121 102 98 103 108 139 131 117 103 119 80 265 57 76 320 240 216 217 193 236 244 253 242 245 258 267 273 277 280 280